Regional Weather Roundup
Issued by NWS

Home | Current Version | Previous Version | Text Only | Print | Product List | Glossary Off
Versions: 1 2 3 4 5 6 7 8 9 10 11 12 13 14 15 16 17 18 19 20 21 22 23 24 25 26 27 28 29 30 31 32 33 34 35 36 37 38 39 40 41 42 43 44 45 46 47 48 49 50

000
ASUS45 KTFX 170610
RWRMT
MONTANA REGIONAL WEATHER ROUNDUP
NATIONAL WEATHER SERVICE GREAT FALLS MT
1100 PM MST FRI FEB 16 2018

NOTE: "FAIR" INDICATES FEW OR NO CLOUDS BELOW 12000 FEET WITH NO
SIGNIFICANT WEATHER AND/OR OBSTRUCTIONS TO VISIBILITY.

MTZ001>007-043-170700-
WEST OF THE DIVIDE

CITY           SKY/WX    TMP DP  RH WIND       PRES   REMARKS
KALISPELL      MOCLDY    20  20 100 CALM      29.93R
MISSOULA       MOCLDY    22  20  92 CALM      29.98R
BUTTE          LGT SNOW  23  18  81 NW9       29.90R WCI  13
MULLAN PASS    CLOUDY    20  19  96 NW7       29.89R FOG     WCI  11
ANACONDA         N/A     25  21  86 SW8       29.92S WCI  16
DEER LODGE       N/A     28  16  59 W9        29.93R WCI  20
EUREKA           N/A     25  21  86 MISG      29.94R
HAMILTON         N/A     30  27  86 MISG      30.00R
PLAINS           N/A     30  21  69 CALM      29.99R
RONAN            N/A     30  25  80 S6        29.98R WCI  24
$$

MTZ008-052>055-170700-
SOUTHWEST MONTANA

CITY           SKY/WX    TMP DP  RH WIND       PRES   REMARKS
BOZEMAN        CLOUDY    28  21  75 W12       29.91R WCI  18
DILLON         FAIR      22  14  71 W13G22    29.89R WCI  10
ENNIS          MOCLDY    28  16  59 W8G16     29.95R WCI  20
W YELLOWSTONE  LGT SNOW  19  18  93 SW9G18    29.87R VSB 1   WCI   9
THREE FORKS      N/A     32  19  58 W12       29.90R WCI  23
TWIN BRIDGES     N/A     28  19  69 CALM      29.91R
$$

MTZ009-010-012-014-046-048-049-054-170700-
EAST SLOPES AND CENTRAL MONTANA

CITY           SKY/WX    TMP DP  RH WIND       PRES   REMARKS
CUT BANK       CLOUDY    17  15  92 NW15      29.94R WCI   2
GREAT FALLS    LGT SNOW  23  18  81 N14       29.89R WCI  11
MALMSTROM AFB  CLOUDY    23  16  74 N12       29.91R WCI  12
HELENA         MOCLDY    31  23  72 W20G25    29.90R WCI  19
AUGUSTA        SNOWSHWR  18  18  98 N23       29.88R VSB 5/8 WCI   1
BOWMANS CRNR   FAIR      20  13  73 N10       29.85R WCI   9
CONRAD           N/A     20  17  88 NW13      29.97  WCI   7
FAIRFIELD      FLURRIES  20  16  82 NE8       29.90R WCI  11
POWER          MOCLDY    20  13  73 N13       29.89R WCI   8
RAYNESFORD     LGT SNOW  25  25  99 NW9       29.86R FOG     WCI  16
ULM            FLURRIES  24  21  87 N8        29.90R WCI  16
WHITE SULPHUR    N/A     23  18  80 W13       29.82R WCI  11
$$

MTZ011-013-016-021-045-047-050-051-170700-
NORTH CENTRAL MONTANA

CITY           SKY/WX    TMP DP  RH WIND       PRES   REMARKS
HAVRE          CLOUDY    20  13  74 W6        29.95R WCI  12
LEWISTOWN      MOCLDY    21  21 100 W8        29.84R WCI  11
N BAR RANCH    FLURRIES  25  19  80 NW15      29.84R WCI  12
CHINOOK          N/A     18  12  79 NW12      29.95R WCI   5
GEYSER         MOCLDY    22  19  88 NE10      29.85R WCI  11
STANFORD       FLURRIES  23  21  95 N8        29.83R WCI  13
WINIFRED       MOCLDY    22  20  89 NE13      29.85R WCI  10
$$

MTZ017>020-022>027-061-062-170700-
NORTHEAST MONTANA

CITY           SKY/WX    TMP DP  RH WIND       PRES   REMARKS
GLASGOW        FAIR      15  11  83 NW7       29.84R WCI   5
GLENDIVE       FAIR      21  18  88 NW6       29.80R WCI  13
JORDAN           N/A     24  20  84 W8        29.82R WCI  15
MALTA          PTCLDY    19  12  73 N15       29.87R WCI   5
SIDNEY         FAIR      16  14  92 W3        29.81R
WOLF POINT     CLOUDY    17  12  80 SW6       29.83R WCI   9
PLENTYWOOD       N/A     10   5  79 CALM      29.80R
POPLAR           N/A     14  10  85 NW3       29.83S
SCOBEY           N/A      5  -2  73 CALM      29.79R
$$

MTZ028>42-056>058-170700-
SOUTHCENTRAL AND SOUTHEAST MONTANA

CITY           SKY/WX    TMP DP  RH WIND       PRES   REMARKS
BAKER          FAIR      23  22  96 W10       29.77F WCI  12
BILLINGS       CLOUDY    30  23  75 W25       29.82R WCI  16
LIVINGSTON     FAIR      28  23  81 W24       29.82R WCI  14
MILES CITY     LGT SNOW  23  23 100 NW5       29.80R VSB 3/4
BIG TIMBER     MOCLDY    28  23  80 W21       29.86R WCI  15
EKALAKA          N/A     24  19  81 SW9       29.76F WCI  14
FORSYTH          N/A     27  27 100 W8        29.82R WCI  18
HARLOWTON      FLURRIES  24  21  89 N12       29.82R WCI  12
LAUREL           N/A     32  23  69 W18G28    29.85R WCI  20
$$

REGIONAL REPORTS...DAKOTAS

CITY           SKY/WX    TMP DP  RH WIND       PRES   REMARKS
WILLISTON      FAIR      15  10  80 CALM      29.80R
MINOT          CLOUDY    23  15  71 W10       29.75S WCI  12
DICKINSON      FAIR      16  14  92 W8        29.74S WCI   5
BEACH          CLOUDY    21  21 100 W12       29.80S WCI   9
CROSBY         FAIR      12   9  85 W9        29.79R WCI   0
TIOGA          FAIR      12  12 100 W10       29.76S WCI  -1
WATFORD CITY   MOCLDY    12  10  92 CALM      29.78S
BISMARCK       FAIR      20  16  84 NW6       29.81S WCI  12
GRAND FORKS    FAIR      24  17  74 W14       29.75R WCI  12
FARGO          CLOUDY    24  17  74 SW10      29.80F WCI  14
BUFFALO SD       N/A     24  20  84 W12       29.72S WCI  13
RAPID CITY     MOCLDY    26  15  63 NW13      29.82S WCI  15
$$

REGIONAL REPORTS...WYOMING/IDAHO/WASHINGTON

CITY           SKY/WX    TMP DP  RH WIND       PRES   REMARKS
GILLETTE       FAIR      15   9  76 SW5       29.79F
SHERIDAN       MOCLDY    29  17  61 CALM      29.80F
BUFFALO WY     CLOUDY    29   9  43 CALM      29.80R
CODY           MOCLDY    29  18  63 W16G23    29.82R WCI  17
YELLOWSTONE LA   N/A     14   9  80 VRB7      29.86R WCI   4
IDAHO FALLS    FAIR      25  19  78 S18       30.04R WCI  11
SALMON         CLOUDY    30  24  78 CALM      29.99R
BOISE          CLOUDY    35  25  66 SE7       30.17R WCI  29
SPOKANE        CLOUDY    31  30  96 SW5       30.05S
$$

REGIONAL REPORTS...ALBERTA

CITY           SKY/WX    TMP DP  RH WIND       PRES   REMARKS
CALGARY        MOCLDY    16   9  73 CALM      29.93R
CARDSTON         N/A     18  16  93 W3          N/A
EDMONTON       CLEAR     10   0  61 W10G18    29.96S WCI  -3
FORT MCMURRAY  CLOUDY     9  -2  61 W14       29.85S WCI  -8
HIGH LEVEL     CLEAR     12   0  57 NW8G17    29.97S WCI   1
LETHBRIDGE     CLOUDY    19  16  86 W9        29.98R WCI   9
LLOYDMINSTER   CLOUDY     7   0  72 NW14      29.84R WCI -10
MEDICINE HAT   CLOUDY    16  10  79 NW7       29.99R WCI   6
MILK RIVER       N/A     18  16  93 NW7         N/A  WCI   8
ONEFOUR          N/A     14   9  79 NW21        N/A  WCI  -4
PEACE RIVER    PTCLDY     7  -6  56 NW12      30.02S WCI  -9
PINCHER CREEK  LGT SNOW  18  16  93 S8        29.93S WCI   7
$$

REGIONAL REPORTS...SASKATCHEWAN

CITY           SKY/WX    TMP DP  RH WIND       PRES   REMARKS
CORONACH         N/A      7   3  85 NW10        N/A  WCI  -8
CYPRESS HILLS    N/A     10   7  85 NW15G25     N/A  WCI  -6
ESTEVAN        PTCLDY     9   5  85 W10       29.77R WCI  -6
MOOSE JAW        N/A     14  10  85 NW14        N/A  WCI  -1
PRINCE ALBERT  CLEAR     -4  -8  84 W5        29.79F
REGINA         PTCLDY     7   5  92 NW9       29.78R WCI  -7
ROCKGLEN         N/A     16  12  86 NW8         N/A  WCI   5
SASKATOON      CLEAR      0  -6  78 NW8       29.83S WCI -15
SWIFT CURRENT  FLURRIES  10   7  85 W12       29.83  WCI  -4
VAL MARIE        N/A     10   7  85 NW10        N/A  WCI  -3
$$



USA.gov is the U.S. government's official web portal to all federal, state and local government web resources and services.